rusio

最新の値

Datetime Temperature Humidity Pressure
08:21 19.57 49.48 1021.78
08:11 19.71 48.83 1021.67
08:01 19.98 47.95 1021.58
07:51 19.91 48.05 1021.69
07:41 20.03 47.4 1021.7
07:31 20.13 47.54 1021.62
07:21 21.06 49.99 1021.4
07:11 21.15 49.75 1021.45
07:01 21.25 49.81 1021.34
06:51 21.31 49.63 1021.35
06:41 21.38 49.22 1021.22
06:31 21.35 49.16 1021.17
06:21 21.37 49.19 1021.05
06:11 21.44 49.15 1020.87
06:01 21.53 49.14 1020.76
05:51 21.59 49.11 1020.57
05:41 21.61 49.4 1020.43
05:31 21.73 48.99 1020.27
05:21 21.82 48.77 1020.17
05:11 21.82 48.54 1020.2
05:01 21.9 48.39 1020.1
04:51 21.97 48.43 1019.95
04:41 22.06 48.31 1019.76
04:31 22.13 48.13 1019.96
04:21 22.24 48.11 1019.87
04:11 22.34 48.03 1019.89
04:01 22.44 47.92 1019.67
03:51 22.53 47.73 1019.56
03:41 22.6 47.47 1019.16
03:31 22.61 47.56 1019.62
03:21 22.73 47.79 1019.64
03:11 22.87 47.52 1019.44
03:01 22.99 47.62 1019.42
02:51 23.13 47.32 1019.84
02:41 23.26 46.94 1019.63
02:31 23.44 47.25 1019.91
02:21 23.61 46.87 1019.74
02:11 23.77 46.55 1019.91
02:01 23.85 46.46 1019.95
01:51 24.07 46.09 1019.87
01:41 24.19 46.07 1019.86
01:31 24.33 45.91 1019.75
01:21 24.37 45.72 1019.49
01:11 24.54 45.74 1019.53
01:01 24.61 45.52 1019.47
00:51 24.63 45.59 1019.16
00:40 24.65 45.47 1019.03
00:30 24.57 45.45 1019.07
00:20 24.56 45.26 1019.4
00:10 24.57 44.83 1019.35
00:00 24.48 44.66 1019.27
23:50 24.33 45.12 1019.27
23:40 24.63 45.08 1019.52
23:30 24.62 44.97 1019.29
23:20 24.63 44.8 1019.4
23:10 24.61 44.68 1019.28
23:00 24.57 44.55 1019.27
22:50 24.61 44.47 1019.39
22:40 24.61 44.36 1019.44
22:30 24.65 44.3 1019.24
22:20 24.61 44.23 1019.38
22:10 24.63 44.12 1019.43
22:00 24.61 43.99 1019.36
21:50 24.61 43.74 1019.42
21:40 24.48 43.55 1019.46
21:30 24.26 42.93 1019.4
21:20 25.08 41.77 1019.39
21:10 25.08 41.27 1019.53
21:00 25.06 44.01 1019.47
20:50 25 43.93 1019.3
20:40 25.05 43.59 1019.4
20:30 24.94 43.83 1019.29
20:20 24.79 44.08 1019.34
20:10 24.68 44.04 1019.41
20:00 24.6 43.95 1019.32
19:50 24.4 44.09 1019.3
19:40 24.25 44.04 1019.1
19:30 24.21 43.68 1019.2
19:20 24.13 43.52 1019.09
19:10 23.99 43.42 1019.26
19:00 23.9 43.03 1019.43
18:50 23.46 43.01 1019.47
18:40 23.66 42.15 1019.3
18:30 23.87 41.88 1019.16
18:20 24.04 41.43 1019.2
18:10 24.22 41.77 1018.97
18:00 24.39 42.9 1018.69
17:50 24.24 42.78 1018.55
17:40 24.11 42.75 1018.46
17:30 23.96 42.58 1018.43
17:20 23.8 42.44 1018.35
17:10 23.59 42.2 1018.07
17:00 23.45 41.69 1018.24
16:50 23.34 41.35 1018.22
16:40 23.1 41.07 1017.98
16:30 22.66 40.64 1017.86
16:20 21.88 40.49 1017.7
16:10 21.67 40.36 1017.66
16:00 22.1 38.92 1017.74
15:50 22.18 37.97 1017.84
15:40 22.48 37.19 1017.8
15:30 22.53 36.27 1017.89
15:20 22.37 36.4 1017.69
15:10 22.76 35.82 1017.47
15:00 22.86 36.18 1017.21
14:50 22.83 35.55 1017.13
14:40 22.99 35.48 1017.18
14:30 22.71 36.17 1017.15
14:20 22.83 35.5 1017.12
14:10 22.77 36.4 1017.07
14:00 22.8 38.54 1016.89
13:50 22.71 38.47 1016.85
13:40 22.4 37.71 1016.92
13:30 22.23 37.53 1017.05
13:20 22.38 37.97 1017.18
13:10 22.07 37.43 1017.35
13:00 22.38 41.4 1017.23
12:50 22.61 45.67 1017.02
12:40 22.63 50.31 1017.08
12:30 22.56 52.19 1017.08
12:20 22.45 52.62 1017.06
12:10 22.36 52.62 1017.18
12:00 22.2 53.14 1017.24
11:50 22.13 53.08 1017.4
11:40 22.06 52.76 1017.52
11:30 22 52.66 1017.74
11:20 21.9 52.09 1017.84
11:10 21.9 53.07 1018.18
11:00 21.78 52.7 1018.23
10:50 21.7 52.64 1018.44
10:40 21.65 52.67 1018.67
10:29 21.57 52.72 1018.75
10:19 21.51 52.69 1018.78
10:09 21.43 53 1018.93
09:59 21.36 53.15 1019.01
09:49 21.25 53.24 1018.98
09:39 21.18 53.54 1019.06
09:29 21.13 52.49 1019.13
09:19 21.01 52.65 1019.3
09:09 21 52.28 1019.41
08:59 20.99 52.29 1019.5
08:49 21 52.44 1019.55
08:39 21 52.61 1019.52